Location: *
(44.1392°N, 4.8079°E)
Time: 06:57:19
(UTC+00:00)

Cosmos 2058 - Pass Details

Date: 21 June 2021
Orbit: 563 x 582 km, 82.5° (Epoch: 02 August)

Event Time Altitude Azimuth Distance (km) Brightness Sun altitude
Exits shadow 00:27:02 50° 122° (ESE) 725 3.2 -21.7°
Maximum altitude 00:27:31 53° 94° (E) 695 3.3 -21.6°
Drops below altitude 10° 00:31:31 10° 18° (NNE) 1,867 6.7 -21.5°
Sets 00:33:44 0° 14° (NNE) 2,770 8.0 -21.4°
